This is the latest recevied weather packets stored in our database for station/object KQ4OSL. If no packets are shown the sender has not sent any weather packets the latest 10 day(s).
| Time | Temp. | Humidity | Pressure | Rain* | Wind** | Luminosity | Snow |
|---|---|---|---|---|---|---|---|
| 1777549706 | 14.44° C | 98% | 1013.2 hPa | 1.78 mm | - | 26 W/m² | - |
| 1777549406 | 14.44° C | 97% | 1012.8 hPa | 1.78 mm | - | 17 W/m² | - |
| 1777549104 | 14.44° C | 97% | 1012.4 hPa | 0 mm | - | 12 W/m² | - |
| 1777548800 | 15° C | 96% | 1012.8 hPa | 0 mm | - | 7 W/m² | - |
| 1777548497 | 15° C | 96% | 1013.1 hPa | 0 mm | - | 6 W/m² | - |
| 1777548194 | 15° C | 96% | 1012.9 hPa | 0 mm | - | 8 W/m² | - |
| 1777547890 | 15° C | 96% | 1013 hPa | 0 mm | - | 5 W/m² | - |
| 1777547586 | 15° C | 96% | 1012.9 hPa | 0 mm | - | 4 W/m² | - |
| 1777547284 | 15° C | 96% | 1012.9 hPa | 0 mm | - | 3 W/m² | - |
| 1777546980 | 15° C | 96% | 1012.9 hPa | 0 mm | - | 1 W/m² | - |
| 1777546677 | 15° C | 95% | 1013 hPa | 0 mm | - | 1 W/m² | - |
| 1777546374 | 15° C | 95% | 1013 hPa | 0 mm | - | 1 W/m² | - |
| 1777546071 | 15° C | 94% | 1013 hPa | 0 mm | - | 0 W/m² | - |
| 1777545767 | 15° C | 94% | 1012.9 hPa | 0 mm | - | 0 W/m² | - |
| 1777545464 | 15° C | 93% | 1013 hPa | 0 mm | - | 0 W/m² | - |
| 1777545161 | 15° C | 92% | 1013.2 hPa | 0 mm | - | 0 W/m² | - |
| 1777544859 | 15.56° C | 92% | 1012.8 hPa | 0 mm | - | 0 W/m² | - |
| 1777544554 | 15.56° C | 92% | 1012.7 hPa | 0 mm | - | 0 W/m² | - |
| 1777544251 | 15.56° C | 92% | 1012.5 hPa | 0 mm | - | 0 W/m² | - |
| 1777543948 | 15.56° C | 92% | 1012.5 hPa | 0 mm | - | 0 W/m² | - |
| 1777543645 | 15.56° C | 93% | 1012.4 hPa | 0 mm | - | 0 W/m² | - |
| 1777543341 | 15.56° C | 93% | 1012.5 hPa | 0 mm | - | 0 W/m² | - |
| 1777543036 | 15.56° C | 93% | 1012.6 hPa | 0 mm | - | 0 W/m² | - |
| 1777542733 | 16.11° C | 92% | 1012.6 hPa | 0 mm | - | 0 W/m² | - |
| 1777542430 | 16.11° C | 93% | 1012.7 hPa | 0 mm | - | 0 W/m² | - |
* Rain latest hour (hover to see other rain measurements)
** Current wind speed in m/s (hover to see current wind gust speed)